Volver al catálogo

STARLINK-5668

ActivoComunicacionesVLEO
NORAD 55350·PAYLOAD·🇺🇸 United States

Lanzado Jan 26, 2023 desde Cape Canaveral Space Force Station

Loading…

Próximos Pases (próximas 24 horas)

TLE

ActualizadoSource: CelesTrak SupGP

Época: Sep 14, 2026, 20:57 UTC

1 55350C 23013V   26257.87340278 -.00051045  00000+0 -18489-2 0  2573
2 55350  43.0039 314.6088 0002128 280.0289 349.7295 15.27601634    16

Sigue STARLINK-5668 en tiempo real con AllMySat

Download on the App Store